CW2551 Weather Reports


Display with metric or nautical units.
time (UTC)temp
F
wind
direction
speed
MPH
gust
MPH
rain 1hr
in
rain 24hr
in
rain mn
in
humidity
%
barometer
mb
20210117004112 50 188 0.0 0.0 0.00 0.00 0.00 81 1027.9
20210117004019 51 188 0.0 0.0 0.00 0.00 0.00 81 1028.0
20210117003615 51 188 0.0 0.0 0.00 0.00 0.00 81 1028.0
20210117003105 51 188 0.0 0.0 0.00 0.00 0.00 80 1028.1
20210117003025 51 188 0.0 0.0 0.00 0.00 0.00 80 1028.1
20210117002606 51 188 0.0 0.0 0.00 0.00 0.00 80 1028.1
20210117002105 51 188 0.0 0.0 0.00 0.00 0.00 80 1028.1
20210117002033 51 188 0.0 0.0 0.00 0.00 0.00 80 1028.0
20210117001603 51 188 0.0 0.0 0.00 0.00 0.00 80 1028.0
20210117001105 51 188 0.0 0.0 0.00 0.00 0.00 80 1028.0
20210117001011 51 188 0.0 0.0 0.00 0.00 0.00 81 1027.9
20210117000607 51 188 0.0 0.0 0.00 0.00 0.00 81 1027.9
20210117000111 51 188 0.0 3.0 0.00 0.00 0.00 81 1027.9
20210117000027 51 188 0.0 0.0 0.00 0.00 0.00 81 1028.0
20210116235616 51 188 0.0 0.0 0.00 0.00 0.00 81 1028.0
20210116235105 51 188 0.0 0.0 0.00 0.00 0.00 82 1027.9
20210116235018 51 188 0.0 0.0 0.00 0.00 0.00 81 1028.0
20210116234605 51 188 0.0 0.0 0.00 0.00 0.00 81 1028.0
20210116234105 51 188 0.0 2.0 0.00 0.00 0.00 83 1027.8
20210116234020 51 188 0.0 0.0 0.00 0.00 0.00 83 1027.8
20210116233606 51 188 0.0 0.0 0.00 0.00 0.00 83 1027.8
20210116233107 51 188 0.0 1.0 0.00 0.00 0.00 83 1027.7
20210116233015 50 188 0.0 0.0 0.00 0.00 0.00 83 1027.5
20210116232605 50 188 0.0 0.0 0.00 0.00 0.00 83 1027.5
20210116232110 50 188 0.0 1.0 0.00 0.00 0.00 84 1027.4
20210116232020 50 188 0.0 0.0 0.00 0.00 0.00 85 1027.3
20210116231605 50 188 0.0 0.0 0.00 0.00 0.00 85 1027.3
20210116231105 50 188 0.0 0.0 0.00 0.00 0.00 85 1027.2
20210116231014 50 188 0.0 3.0 0.00 0.00 0.00 85 1027.2
20210116230609 50 188 0.0 3.0 0.00 0.00 0.00 85 1027.2
20210116230108 50 188 1.0 3.0 0.00 0.00 0.00 85 1027.1
20210116230028 49 188 0.0 3.0 0.00 0.00 0.00 87 1027.1
20210116225609 49 188 0.0 3.0 0.00 0.00 0.00 87 1027.1
20210116225107 49 188 0.0 3.0 0.00 0.00 0.00 85 1027.1
20210116225011 50 188 1.0 3.0 0.00 0.00 0.00 86 1027.1
20210116224604 50 188 1.0 3.0 0.00 0.00 0.00 86 1027.1
20210116224110 50 188 1.0 3.0 0.00 0.00 0.00 84 1027.1
20210116224021 50 188 0.0 1.0 0.00 0.00 0.00 86 1027.4
20210116223605 50 188 0.0 1.0 0.00 0.00 0.00 86 1027.4
20210116223108 49 188 2.0 3.0 0.00 0.00 0.00 85 1027.5
20210116223021 49 188 2.0 3.0 0.00 0.00 0.00 86 1027.5
20210116222604 49 188 2.0 3.0 0.00 0.00 0.00 86 1027.5
20210116222111 49 188 1.0 3.0 0.00 0.00 0.00 85 1027.6
20210116222020 50 188 1.0 5.0 0.00 0.00 0.00 84 1027.6
20210116221607 50 188 1.0 5.0 0.00 0.00 0.00 84 1027.6
20210116221106 50 189 2.0 3.0 0.00 0.00 0.00 86 1027.8
20210116221020 49 189 2.0 3.0 0.00 0.00 0.00 86 1027.9
20210116220605 49 189 2.0 3.0 0.00 0.00 0.00 86 1027.9
20210116220104 49 189 1.0 5.0 0.00 0.00 0.00 86 1027.9
20210116220023 49 189 2.0 3.0 0.00 0.00 0.00 86 1027.9
20210116215609 49 189 2.0 3.0 0.00 0.00 0.00 86 1027.9
20210116215105 49 189 1.0 3.0 0.00 0.00 0.00 87 1028.0
20210116215032 49 189 1.0 3.0 0.00 0.00 0.00 87 1027.9
20210116214637 49 189 1.0 3.0 0.00 0.00 0.00 87 1027.9
20210116214110 48 189 1.0 2.0 0.00 0.00 0.00 86 1027.7
20210116214025 48 189 2.0 3.0 0.00 0.00 0.00 87 1028.0
20210116213606 48 189 2.0 3.0 0.00 0.00 0.00 87 1028.0
20210116213104 48 189 0.0 2.0 0.00 0.00 0.00 87 1028.2
20210116213022 48 189 1.0 5.0 0.00 0.00 0.00 87 1028.1
20210116212609 48 189 1.0 5.0 0.00 0.00 0.00 87 1028.1
20210116212113 48 150 0.0 3.0 0.00 0.00 0.00 87 1028.1
20210116212021 48 150 2.0 3.0 0.00 0.00 0.00 86 1028.1
20210116211616 48 150 2.0 3.0 0.00 0.00 0.00 86 1028.1
20210116211104 48 150 0.0 0.0 0.00 0.00 0.00 88 1028.1
20210116211027 48 150 1.0 3.0 0.00 0.00 0.00 87 1028.2
20210116210619 48 150 1.0 3.0 0.00 0.00 0.00 87 1028.2
20210116210110 48 150 0.0 2.0 0.00 0.00 0.00 87 1028.3
20210116210035 48 150 0.0 0.0 0.00 0.00 0.00 88 1028.4
20210116205623 48 150 0.0 0.0 0.00 0.00 0.00 88 1028.4
20210116205106 48 150 0.0 0.0 0.00 0.00 0.00 87 1028.5
20210116205027 48 150 0.0 0.0 0.00 0.00 0.00 88 1028.4
20210116204604 48 150 0.0 0.0 0.00 0.00 0.00 88 1028.4
20210116204109 48 150 0.0 0.0 0.00 0.00 0.00 88 1028.4
20210116204011 48 150 0.0 3.0 0.00 0.00 0.00 88 1028.5
20210116203605 48 150 0.0 3.0 0.00 0.00 0.00 88 1028.5
20210116203106 48 150 0.0 3.0 0.00 0.00 0.00 88 1028.6
20210116203013 48 150 0.0 2.0 0.00 0.00 0.00 89 1028.7
20210116202606 48 150 0.0 2.0 0.00 0.00 0.00 89 1028.7
20210116202109 48 150 0.0 0.0 0.00 0.00 0.00 89 1028.8
20210116202027 48 150 0.0 0.0 0.00 0.00 0.00 89 1028.7
20210116201607 48 150 0.0 0.0 0.00 0.00 0.00 89 1028.7
20210116201112 48 150 0.0 0.0 0.00 0.00 0.00 90 1028.8
20210116201038 47 150 0.0 0.0 0.00 0.00 0.00 90 1028.9
20210116200608 47 150 0.0 0.0 0.00 0.00 0.00 90 1028.9
20210116200112 47 150 0.0 2.0 0.00 0.00 0.00 90 1028.9
20210116200039 47 150 0.0 0.0 0.00 0.00 0.00 90 1029.0
20210116195625 47 150 0.0 0.0 0.00 0.00 0.00 90 1029.0
20210116195107 47 150 0.0 0.0 0.00 0.00 0.00 90 1029.1
20210116195012 47 150 1.0 3.0 0.00 0.00 0.00 91 1029.2
20210116194653 47 150 1.0 3.0 0.00 0.00 0.00 91 1029.2
20210116194114 47 150 0.0 3.0 0.00 0.00 0.00 91 1029.2
20210116194031 47 150 0.0 1.0 0.00 0.00 0.00 91 1029.4
20210116193631 47 150 0.0 1.0 0.00 0.00 0.00 91 1029.4
20210116193114 47 150 0.0 0.0 0.00 0.00 0.00 91 1029.5
20210116193034 47 150 1.0 3.0 0.00 0.00 0.00 91 1029.5
20210116192628 47 150 1.0 3.0 0.00 0.00 0.00 91 1029.5
20210116192124 47 56 0.0 2.0 0.00 0.00 0.00 91 1029.7
20210116191619 47 10 0.0 1.0 0.00 0.00 0.00 90 1029.6
20210116191104 47 150 1.0 2.0 0.00 0.00 0.00 90 1029.6
20210116191012 47 150 0.0 2.0 0.00 0.00 0.00 90 1029.7
20210116190616 47 150 0.0 2.0 0.00 0.00 0.00 90 1029.7
20210116190121 47 150 1.0 3.0 0.00 0.00 0.00 89 1029.7
20210116190038 47 150 0.0 0.0 0.00 0.00 0.00 90 1029.7
20210116185653 47 150 0.0 0.0 0.00 0.00 0.00 90 1029.7
20210116185119 47 150 0.0 0.0 0.00 0.00 0.00 90 1029.6
20210116185024 47 150 0.0 0.0 0.00 0.00 0.00 90 1029.7
20210116184610 47 150 0.0 0.0 0.00 0.00 0.00 90 1029.7
20210116184106 46 150 0.0 0.0 0.00 0.00 0.00 90 1029.6
20210116184026 46 150 0.0 0.0 0.00 0.00 0.00 90 1029.5
20210116183628 46 150 0.0 0.0 0.00 0.00 0.00 90 1029.5
20210116183112 46 150 0.0 0.0 0.00 0.00 0.00 91 1029.6
20210116183041 46 150 0.0 0.0 0.00 0.00 0.00 91 1029.7
20210116182925 46 150 0.0 0.0 0.00 0.00 0.00 91 1029.7
20210116182447 46 150 0.0 0.0 0.00 0.00 0.00 91 1029.9
20210116182329 46 150 0.0 0.0 0.00 0.00 0.00 92 1030.0
20210116181923 46 150 0.0 0.0 0.00 0.00 0.00 92 1030.0
20210116181302 46 150 0.0 0.0 0.00 0.00 0.00 92 1030.1
20210116181119 46 150 0.0 0.0 0.00 0.00 0.00 92 1030.1
20210116180604 46 150 0.0 0.0 0.00 0.00 0.00 92 1030.1
20210116180104 45 150 0.0 0.0 0.00 0.00 0.00 92 1030.1
20210116180036 45 150 0.0 0.0 0.00 0.00 0.00 93 1030.1
20210116175611 45 150 0.0 0.0 0.00 0.00 0.00 93 1030.1
20210116175105 45 150 0.0 0.0 0.00 0.00 0.00 93 1030.1
20210116175011 45 150 0.0 0.0 0.00 0.00 0.00 94 1030.2
20210116174608 45 150 0.0 0.0 0.00 0.00 0.00 94 1030.2
20210116174111 45 150 0.0 0.0 0.00 0.00 0.00 94 1030.2
20210116174012 45 150 0.0 0.0 0.00 0.01 0.00 94 1030.3
20210116173606 45 150 0.0 0.0 0.00 0.01 0.00 94 1030.3
20210116173104 45 150 0.0 0.0 0.00 0.02 0.00 94 1030.3
20210116173024 45 150 0.0 0.0 0.00 0.02 0.00 94 1030.3
20210116172605 45 150 0.0 0.0 0.00 0.02 0.00 94 1030.3
20210116172104 44 150 0.0 0.0 0.00 0.02 0.00 94 1030.5
20210116172022 45 150 0.0 0.0 0.00 0.02 0.00 94 1030.4
20210116171608 45 150 0.0 0.0 0.00 0.02 0.00 94 1030.4
20210116171120 44 150 0.0 0.0 0.00 0.02 0.00 95 1030.3
20210116171017 44 150 0.0 0.0 0.00 0.02 0.00 94 1030.2
20210116170608 44 150 0.0 0.0 0.00 0.02 0.00 94 1030.2
20210116170105 44 150 0.0 0.0 0.00 0.02 0.00 94 1030.2
20210116170025 44 150 0.0 0.0 0.00 0.02 0.00 94 1030.2
20210116165620 44 150 0.0 0.0 0.00 0.02 0.00 94 1030.2
20210116165106 44 150 0.0 0.0 0.00 0.02 0.00 94 1030.2
20210116165021 44 150 0.0 0.0 0.00 0.02 0.00 94 1030.1
20210116164605 44 150 0.0 0.0 0.00 0.02 0.00 94 1030.1
20210116164114 44 150 0.0 0.0 0.00 0.03 0.00 94 1030.1
20210116164018 44 150 0.0 0.0 0.00 0.03 0.00 94 1030.2
20210116163616 44 150 0.0 0.0 0.00 0.03 0.00 94 1030.2
20210116163107 44 150 0.0 0.0 0.00 0.03 0.00 94 1030.1
20210116163023 44 150 0.0 0.0 0.00 0.03 0.00 94 1030.0
20210116162607 44 150 0.0 0.0 0.00 0.03 0.00 94 1030.0
20210116162108 44 150 0.0 0.0 0.00 0.03 0.00 94 1029.9
20210116162019 44 150 0.0 0.0 0.00 0.03 0.00 94 1029.8
20210116161608 44 150 0.0 0.0 0.00 0.03 0.00 94 1029.8
20210116161104 44 150 0.0 0.0 0.00 0.03 0.00 94 1029.7
20210116161018 44 150 0.0 0.0 0.00 0.03 0.00 94 1029.7
20210116160615 44 150 0.0 0.0 0.00 0.03 0.00 94 1029.7
20210116160110 44 150 0.0 0.0 0.00 0.03 0.00 94 1029.4
20210116160023 44 150 0.0 0.0 0.00 0.03 0.00 94 1029.5
20210116155608 44 150 0.0 0.0 0.00 0.03 0.00 94 1029.5
20210116155105 44 150 0.0 0.0 0.00 0.03 0.00 94 1029.4
20210116155021 44 150 0.0 0.0 0.00 0.03 0.00 94 1029.5
20210116154606 44 150 0.0 0.0 0.00 0.03 0.00 94 1029.5
20210116154104 44 150 0.0 0.0 0.00 0.03 0.00 93 1029.4
20210116154017 44 150 0.0 0.0 0.00 0.03 0.00 93 1029.4
20210116153604 44 150 0.0 0.0 0.00 0.03 0.00 93 1029.4
20210116153104 44 150 0.0 0.0 0.00 0.03 0.00 93 1029.4
20210116153022 44 150 0.0 0.0 0.00 0.03 0.00 93 1029.4
20210116152612 44 150 0.0 0.0 0.00 0.03 0.00 93 1029.4
20210116152119 44 150 0.0 0.0 0.00 0.03 0.00 93 1029.5
20210116152019 44 150 0.0 0.0 0.00 0.03 0.00 93 1029.5
20210116151610 44 150 0.0 0.0 0.00 0.03 0.00 93 1029.5
20210116151106 44 150 0.0 0.0 0.00 0.03 0.00 93 1029.5
20210116151011 44 150 0.0 0.0 0.00 0.03 0.00 93 1029.4
20210116150604 44 150 0.0 0.0 0.00 0.03 0.00 93 1029.4
20210116150108 44 150 0.0 0.0 0.00 0.03 0.00 93 1029.3
20210116150038 44 150 0.0 0.0 0.00 0.03 0.00 93 1029.4
20210116145617 44 150 0.0 0.0 0.00 0.03 0.00 93 1029.4
20210116145113 44 150 0.0 0.0 0.00 0.03 0.00 93 1029.4
20210116145019 44 150 0.0 0.0 0.00 0.03 0.00 93 1029.3
20210116144609 44 150 0.0 0.0 0.00 0.03 0.00 93 1029.3
20210116144107 44 150 0.0 0.0 0.00 0.03 0.00 93 1029.2
20210116144019 44 150 0.0 0.0 0.00 0.03 0.00 93 1029.2
20210116143605 44 150 0.0 0.0 0.00 0.03 0.00 93 1029.2
20210116143119 44 150 0.0 0.0 0.00 0.03 0.00 93 1029.2
20210116143035 44 150 0.0 0.0 0.00 0.03 0.00 93 1029.2
20210116142604 44 150 0.0 0.0 0.00 0.03 0.00 93 1029.2
20210116142104 44 150 0.0 0.0 0.00 0.03 0.00 93 1029.2
20210116142030 44 150 0.0 0.0 0.00 0.03 0.00 93 1029.1
20210116141608 44 150 0.0 0.0 0.00 0.03 0.00 93 1029.1
20210116141248 44 150 1.0 3.0 0.00 0.03 0.00 93 1029.0
20210116141131 44 150 0.0 1.0 0.00 0.03 0.00 93 1029.1
20210116140604 44 150 0.0 1.0 0.00 0.03 0.00 93 1029.1
20210116140249 44 150 0.0 0.0 0.00 0.03 0.00 93 1029.1
20210116140149 44 150 0.0 0.0 0.00 0.03 0.00 93 1029.1
20210116135655 44 150 0.0 0.0 0.00 0.03 0.00 93 1029.1
20210116135105 44 150 0.0 0.0 0.00 0.03 0.00 93 1029.0
20210116135018 44 150 0.0 0.0 0.00 0.03 0.00 93 1029.0
20210116134606 44 150 0.0 0.0 0.00 0.03 0.00 93 1029.0
20210116134108 44 150 0.0 0.0 0.00 0.03 0.00 93 1029.0
20210116134025 44 150 0.0 0.0 0.00 0.03 0.00 93 1029.0
20210116133608 44 150 0.0 0.0 0.00 0.03 0.00 93 1029.0
20210116133112 44 150 0.0 0.0 0.00 0.03 0.00 93 1029.0
20210116133023 44 150 0.0 0.0 0.00 0.03 0.00 93 1029.0
20210116132604 44 150 0.0 0.0 0.00 0.03 0.00 93 1029.0
20210116132105 44 150 0.0 0.0 0.00 0.03 0.00 93 1029.1
20210116132011 44 150 0.0 0.0 0.00 0.03 0.00 93 1029.1
20210116131606 44 150 0.0 0.0 0.00 0.03 0.00 93 1029.1
20210116131104 44 150 0.0 0.0 0.00 0.03 0.00 93 1029.2
20210116131013 44 150 0.0 0.0 0.00 0.03 0.00 93 1029.2
20210116130741 44 150 0.0 0.0 0.00 0.03 0.00 93 1029.2
20210116130133 44 150 0.0 0.0 0.00 0.03 0.00 93 1029.2
20210116130028 44 150 0.0 0.0 0.00 0.03 0.00 93 1029.1
20210116125608 44 150 0.0 0.0 0.00 0.03 0.00 93 1029.1
20210116125129 44 150 0.0 0.0 0.00 0.03 0.00 93 1029.1
20210116125034 44 150 0.0 0.0 0.00 0.03 0.00 92 1029.1
20210116124617 44 150 0.0 0.0 0.00 0.03 0.00 92 1029.1
20210116124106 44 150 0.0 0.0 0.00 0.03 0.00 92 1029.2
20210116124027 44 150 0.0 0.0 0.00 0.03 0.00 92 1029.3
20210116123614 44 150 0.0 0.0 0.00 0.03 0.00 92 1029.3
20210116123104 44 150 0.0 0.0 0.00 0.03 0.00 92 1029.2
20210116123025 44 150 0.0 0.0 0.00 0.03 0.00 92 1029.1
20210116122614 44 150 0.0 0.0 0.00 0.03 0.00 92 1029.1
20210116122108 44 150 0.0 0.0 0.00 0.03 0.00 92 1029.1
20210116122018 44 150 0.0 0.0 0.00 0.03 0.00 92 1029.2
20210116121624 44 150 0.0 0.0 0.00 0.03 0.00 92 1029.2
20210116121110 44 150 0.0 0.0 0.00 0.03 0.00 92 1029.2
20210116121011 44 150 0.0 0.0 0.00 0.03 0.00 92 1029.3
20210116120605 44 150 0.0 0.0 0.00 0.03 0.00 92 1029.3
20210116120136 45 150 0.0 0.0 0.00 0.03 0.00 92 1029.1
20210116120039 44 150 0.0 0.0 0.00 0.03 0.00 92 1029.3
20210116115605 44 150 0.0 0.0 0.00 0.03 0.00 92 1029.3
20210116115106 44 150 0.0 0.0 0.00 0.03 0.00 92 1029.3
20210116115020 44 150 0.0 0.0 0.00 0.03 0.00 92 1029.2
20210116114607 44 150 0.0 0.0 0.00 0.03 0.00 92 1029.2
20210116114107 44 150 0.0 0.0 0.00 0.03 0.00 92 1029.2
20210116114015 45 150 0.0 0.0 0.00 0.03 0.00 92 1029.1
20210116113605 45 150 0.0 0.0 0.00 0.03 0.00 92 1029.1
20210116113108 45 150 0.0 0.0 0.00 0.03 0.00 92 1029.2
20210116113036 45 150 0.0 0.0 0.00 0.03 0.00 92 1029.2
20210116112605 45 150 0.0 0.0 0.00 0.03 0.00 92 1029.2
20210116112115 45 150 0.0 0.0 0.00 0.03 0.00 92 1029.3
20210116112025 45 150 0.0 0.0 0.00 0.03 0.00 92 1029.4
20210116111609 45 150 0.0 0.0 0.00 0.03 0.00 92 1029.4
20210116111107 44 150 0.0 0.0 0.00 0.03 0.00 93 1029.4
20210116111010 44 150 0.0 0.0 0.00 0.03 0.00 93 1029.4
20210116110612 44 150 0.0 0.0 0.00 0.03 0.00 93 1029.4
20210116110104 44 150 0.0 0.0 0.00 0.03 0.00 93 1029.4
20210116110032 44 150 0.0 3.0 0.00 0.03 0.00 93 1029.4
20210116105617 44 150 0.0 3.0 0.00 0.03 0.00 93 1029.4
20210116105104 44 150 0.0 3.0 0.00 0.03 0.00 93 1029.3
20210116105026 44 150 2.0 3.0 0.00 0.03 0.00 93 1029.3
20210116104612 44 150 2.0 3.0 0.00 0.03 0.00 93 1029.3
20210116104103 44 150 1.0 5.0 0.00 0.03 0.00 93 1029.3
20210116104019 44 150 1.0 3.0 0.00 0.03 0.00 93 1029.5
20210116103604 44 150 1.0 3.0 0.00 0.03 0.00 93 1029.5
20210116103108 44 150 1.0 3.0 0.00 0.03 0.00 93 1029.4
20210116103011 44 150 0.0 2.0 0.00 0.03 0.00 93 1029.5
20210116102605 44 150 0.0 2.0 0.00 0.03 0.00 93 1029.5
20210116102121 44 150 0.0 0.0 0.00 0.03 0.00 92 1029.6
20210116102019 44 150 0.0 0.0 0.00 0.03 0.00 92 1029.6
20210116101606 44 150 0.0 0.0 0.00 0.03 0.00 92 1029.6
20210116101112 44 150 0.0 0.0 0.00 0.03 0.00 93 1029.6
20210116101013 44 150 0.0 0.0 0.00 0.03 0.00 93 1029.6
20210116100604 44 150 0.0 0.0 0.00 0.03 0.00 93 1029.6
20210116100121 44 150 0.0 0.0 0.00 0.03 0.00 93 1029.6
20210116100025 44 150 0.0 0.0 0.00 0.03 0.00 93 1029.5
20210116095607 44 150 0.0 0.0 0.00 0.03 0.00 93 1029.5
20210116095109 44 150 0.0 0.0 0.00 0.03 0.00 92 1029.5
20210116095020 44 150 0.0 0.0 0.00 0.03 0.00 92 1029.6
20210116094608 44 150 0.0 0.0 0.00 0.03 0.00 92 1029.6
20210116094117 44 150 0.0 0.0 0.00 0.03 0.00 92 1029.6
20210116094018 44 150 0.0 0.0 0.00 0.03 0.00 92 1029.6
20210116093604 44 150 0.0 0.0 0.00 0.03 0.00 92 1029.6
20210116093104 44 150 0.0 0.0 0.00 0.03 0.00 92 1029.6
20210116093024 44 150 0.0 0.0 0.00 0.03 0.00 92 1029.6
20210116092604 44 150 0.0 0.0 0.00 0.03 0.00 92 1029.6
20210116092103 44 150 0.0 0.0 0.00 0.03 0.00 92 1029.7
20210116092011 44 150 0.0 0.0 0.00 0.03 0.00 92 1029.7
20210116091608 44 150 0.0 0.0 0.00 0.03 0.00 92 1029.7
20210116091106 44 150 0.0 0.0 0.00 0.03 0.00 92 1029.7
20210116091012 44 150 0.0 0.0 0.00 0.03 0.00 92 1029.7
20210116090608 44 150 0.0 0.0 0.00 0.03 0.00 92 1029.7
20210116090109 44 150 0.0 0.0 0.00 0.03 0.00 92 1029.7
20210116090029 44 150 0.0 0.0 0.00 0.03 0.00 92 1029.7
20210116085619 44 150 0.0 0.0 0.00 0.03 0.00 92 1029.7
20210116085106 44 150 0.0 0.0 0.00 0.03 0.00 92 1029.6
20210116085011 44 150 0.0 0.0 0.00 0.03 0.00 91 1029.6
20210116084607 44 150 0.0 0.0 0.00 0.03 0.00 91 1029.6
20210116084111 44 150 0.0 0.0 0.00 0.03 0.00 91 1029.5
20210116084027 44 150 0.0 0.0 0.00 0.03 0.00 91 1029.4
20210116083622 44 150 0.0 0.0 0.00 0.03 0.00 91 1029.4
20210116083123 44 150 0.0 2.0 0.00 0.03 0.00 91 1029.4
20210116083012 44 150 0.0 0.0 0.00 0.03 0.00 91 1029.3
20210116082603 44 150 0.0 0.0 0.00 0.03 0.00 91 1029.3
20210116082111 44 150 0.0 0.0 0.00 0.03 0.00 91 1029.2
20210116082012 44 150 0.0 0.0 0.00 0.03 0.00 92 1029.1
20210116081604 44 150 0.0 0.0 0.00 0.03 0.00 92 1029.1
20210116081107 44 150 0.0 0.0 0.00 0.03 0.00 92 1029.0
20210116081010 44 150 0.0 0.0 0.00 0.03 0.00 92 1029.1
20210116080604 44 150 0.0 0.0 0.00 0.03 0.00 92 1029.1
20210116080105 44 150 0.0 0.0 0.00 0.03 0.00 92 1029.1
20210116080024 44 150 0.0 0.0 0.00 0.03 0.03 92 1029.1
20210116075605 44 150 0.0 0.0 0.00 0.03 0.03 92 1029.1
20210116075108 44 150 0.0 0.0 0.00 0.03 0.03 91 1029.1
20210116075012 44 150 0.0 0.0 0.00 0.03 0.03 91 1029.2
20210116074608 44 150 0.0 0.0 0.00 0.03 0.03 91 1029.2
20210116074108 44 150 0.0 0.0 0.00 0.03 0.03 91 1029.3
20210116074015 44 150 0.0 0.0 0.00 0.03 0.03 91 1029.3
20210116073616 44 150 0.0 0.0 0.00 0.03 0.03 91 1029.3
20210116073105 45 150 0.0 0.0 0.00 0.03 0.03 91 1029.3
20210116073015 45 150 0.0 0.0 0.00 0.03 0.03 91 1029.3
20210116072604 45 150 0.0 0.0 0.00 0.03 0.03 91 1029.3
20210116072105 44 150 0.0 0.0 0.00 0.03 0.03 91 1029.3
20210116072019 44 150 0.0 0.0 0.00 0.03 0.03 91 1029.4
20210116071605 44 150 0.0 0.0 0.00 0.03 0.03 91 1029.4
20210116071105 44 150 0.0 0.0 0.00 0.03 0.03 91 1029.5
20210116071011 44 150 0.0 0.0 0.00 0.03 0.03 91 1029.5
20210116070604 44 150 0.0 0.0 0.00 0.03 0.03 91 1029.5
20210116070104 44 150 0.0 1.0 0.00 0.03 0.03 91 1029.5
20210116070034 44 150 0.0 0.0 0.00 0.03 0.03 92 1029.6
20210116065612 44 150 0.0 0.0 0.00 0.03 0.03 92 1029.6
20210116065106 44 150 0.0 1.0 0.00 0.03 0.03 92 1029.6
20210116065022 44 150 0.0 2.0 0.00 0.03 0.03 92 1029.5
20210116064604 44 150 0.0 2.0 0.00 0.03 0.03 92 1029.5
20210116064108 44 150 0.0 0.0 0.00 0.03 0.03 92 1029.6
20210116064019 44 150 0.0 0.0 0.00 0.03 0.03 92 1029.7
20210116063604 44 150 0.0 0.0 0.00 0.03 0.03 92 1029.7
20210116063105 44 150 0.0 0.0 0.00 0.03 0.03 93 1029.6
20210116063030 44 150 0.0 0.0 0.00 0.03 0.03 93 1029.6
20210116062603 44 150 0.0 0.0 0.00 0.03 0.03 93 1029.6
20210116062115 44 150 0.0 0.0 0.00 0.03 0.03 93 1029.8
20210116062012 44 150 0.0 0.0 0.00 0.03 0.03 92 1030.0
20210116061605 44 150 0.0 0.0 0.00 0.03 0.03 92 1030.0
20210116061104 44 150 0.0 2.0 0.00 0.03 0.03 92 1029.9
20210116061011 45 150 0.0 0.0 0.00 0.03 0.03 92 1029.9
20210116060604 45 150 0.0 0.0 0.00 0.03 0.03 92 1029.9
20210116060108 45 150 0.0 0.0 0.00 0.03 0.03 92 1029.8
20210116060025 45 150 0.0 0.0 0.00 0.03 0.03 92 1029.8
20210116055606 45 150 0.0 0.0 0.00 0.03 0.03 92 1029.8
20210116055106 45 150 0.0 0.0 0.00 0.03 0.03 92 1029.8
20210116055019 44 150 0.0 0.0 0.00 0.03 0.03 93 1029.7
20210116054609 44 150 0.0 0.0 0.00 0.03 0.03 93 1029.7
20210116054104 44 150 0.0 0.0 0.00 0.03 0.03 93 1029.9
20210116054020 44 150 0.0 0.0 0.00 0.03 0.03 94 1029.9
20210116053605 44 150 0.0 0.0 0.00 0.03 0.03 94 1029.9
20210116053111 44 150 0.0 0.0 0.00 0.03 0.03 94 1029.9
20210116053020 44 150 0.0 0.0 0.00 0.03 0.03 95 1030.0
20210116052614 44 150 0.0 0.0 0.00 0.03 0.03 95 1030.0
20210116052109 44 150 0.0 0.0 0.00 0.03 0.03 95 1030.1
20210116052011 43 150 0.0 0.0 0.00 0.03 0.03 95 1030.1
20210116051609 43 150 0.0 0.0 0.00 0.03 0.03 95 1030.1
20210116051104 43 150 0.0 0.0 0.00 0.03 0.03 95 1030.1
20210116051021 43 150 0.0 0.0 0.00 0.03 0.03 95 1030.1
20210116050604 43 150 0.0 0.0 0.00 0.03 0.03 95 1030.1
20210116050104 42 150 0.0 0.0 0.00 0.03 0.03 95 1030.1
20210116050021 42 150 0.0 0.0 0.00 0.03 0.03 95 1030.1
20210116045604 42 150 0.0 0.0 0.00 0.03 0.03 95 1030.1
20210116045112 42 150 0.0 0.0 0.00 0.03 0.03 95 1030.2
20210116045010 41 150 0.0 0.0 0.00 0.03 0.03 94 1030.1
20210116044603 41 150 0.0 0.0 0.00 0.03 0.03 94 1030.1
20210116044105 41 150 0.0 0.0 0.00 0.03 0.03 94 1030.0
20210116044012 41 150 0.0 0.0 0.00 0.03 0.03 94 1029.9
20210116043605 41 150 0.0 0.0 0.00 0.03 0.03 94 1029.9
20210116043106 42 150 0.0 0.0 0.00 0.03 0.03 93 1029.9
20210116043026 43 150 0.0 0.0 0.00 0.03 0.03 93 1030.0
20210116042604 43 150 0.0 0.0 0.00 0.03 0.03 93 1030.0
20210116042112 43 150 0.0 0.0 0.00 0.03 0.03 92 1030.0
20210116042011 44 150 0.0 0.0 0.00 0.03 0.03 92 1030.1
20210116041606 44 150 0.0 0.0 0.00 0.03 0.03 92 1030.1
20210116041105 44 150 0.0 0.0 0.00 0.03 0.03 92 1030.1
20210116041014 45 150 0.0 0.0 0.00 0.03 0.03 92 1030.1
20210116040606 45 150 0.0 0.0 0.00 0.03 0.03 92 1030.1
20210116040104 45 150 0.0 0.0 0.00 0.03 0.03 91 1030.1
20210116040020 46 150 0.0 0.0 0.00 0.03 0.03 91 1030.0
20210116035607 46 150 0.0 0.0 0.00 0.03 0.03 91 1030.0
20210116035106 46 150 0.0 0.0 0.00 0.03 0.03 91 1030.1
20210116035012 46 150 0.0 0.0 0.00 0.03 0.03 91 1030.1
20210116034604 46 150 0.0 0.0 0.00 0.03 0.03 91 1030.1
20210116034104 46 150 0.0 0.0 0.00 0.03 0.03 91 1030.1
20210116034016 46 150 0.0 0.0 0.00 0.03 0.03 90 1030.2
20210116033605 46 150 0.0 0.0 0.00 0.03 0.03 90 1030.2
20210116033104 46 150 0.0 0.0 0.00 0.03 0.03 90 1030.2
20210116033021 47 150 0.0 0.0 0.00 0.03 0.03 89 1030.3
20210116032610 47 150 0.0 0.0 0.00 0.03 0.03 89 1030.3
20210116032113 47 150 0.0 0.0 0.00 0.03 0.03 89 1030.3
20210116032018 47 150 0.0 0.0 0.00 0.03 0.03 89 1030.3
20210116031605 47 150 0.0 0.0 0.00 0.03 0.03 89 1030.3
20210116031104 46 150 0.0 0.0 0.00 0.03 0.03 90 1030.3
20210116031012 46 150 0.0 0.0 0.00 0.03 0.03 90 1030.3
20210116030605 46 150 0.0 0.0 0.00 0.03 0.03 90 1030.3
20210116030107 46 150 0.0 0.0 0.00 0.03 0.03 90 1030.3
20210116030025 46 150 0.0 0.0 0.00 0.03 0.03 90 1030.3
20210116025614 46 150 0.0 0.0 0.00 0.03 0.03 90 1030.3
20210116025103 46 150 0.0 0.0 0.00 0.03 0.03 90 1030.2
20210116025019 46 150 0.0 0.0 0.00 0.03 0.03 90 1030.3
20210116024605 46 150 0.0 0.0 0.00 0.03 0.03 90 1030.3
20210116024105 46 150 0.0 0.0 0.00 0.03 0.03 90 1030.4
20210116024012 46 150 0.0 0.0 0.00 0.03 0.03 91 1030.4
20210116023605 46 150 0.0 0.0 0.00 0.03 0.03 91 1030.4
20210116023105 46 150 0.0 0.0 0.00 0.03 0.03 91 1030.4
20210116023011 46 150 0.0 0.0 0.00 0.03 0.03 90 1030.5
20210116022605 46 150 0.0 0.0 0.00 0.03 0.03 90 1030.5
20210116022104 46 150 0.0 0.0 0.00 0.03 0.03 90 1030.4
20210116022023 46 150 0.0 0.0 0.00 0.03 0.03 89 1030.6
20210116021605 46 150 0.0 0.0 0.00 0.03 0.03 89 1030.6
20210116021105 46 150 0.0 0.0 0.00 0.03 0.03 89 1030.5
20210116021011 46 150 0.0 0.0 0.00 0.03 0.03 89 1030.5
20210116020604 46 150 0.0 0.0 0.00 0.03 0.03 89 1030.5
20210116020118 46 150 0.0 0.0 0.00 0.03 0.03 90 1030.5
20210116020022 46 150 0.0 0.0 0.00 0.03 0.03 89 1030.4
20210116015614 46 150 0.0 0.0 0.00 0.03 0.03 89 1030.4
20210116015117 45 150 0.0 0.0 0.00 0.03 0.03 90 1030.4
20210116015010 45 150 0.0 0.0 0.00 0.03 0.03 89 1030.5
20210116014606 45 150 0.0 0.0 0.00 0.03 0.03 89 1030.5
20210116014104 46 150 0.0 0.0 0.00 0.03 0.03 89 1030.3
20210116014015 46 150 0.0 0.0 0.00 0.03 0.03 88 1030.3
20210116013604 46 150 0.0 0.0 0.00 0.03 0.03 88 1030.3
20210116013109 46 150 0.0 0.0 0.00 0.03 0.03 88 1030.2
20210116013019 46 150 0.0 0.0 0.00 0.03 0.03 88 1030.3
20210116012608 46 150 0.0 0.0 0.00 0.03 0.03 88 1030.3
20210116012110 46 150 0.0 0.0 0.00 0.03 0.03 88 1030.3
20210116012021 47 150 0.0 0.0 0.00 0.03 0.03 88 1030.3
20210116011606 47 150 0.0 0.0 0.00 0.03 0.03 88 1030.3
20210116011108 47 150 0.0 0.0 0.00 0.03 0.03 88 1030.4
20210116011019 47 150 0.0 0.0 0.00 0.03 0.03 87 1030.5
20210116010615 47 150 0.0 0.0 0.00 0.03 0.03 87 1030.5
20210116010107 47 150 0.0 0.0 0.00 0.03 0.03 87 1030.5
20210116010033 47 150 0.0 0.0 0.00 0.03 0.03 87 1030.5
20210116005614 47 150 0.0 0.0 0.00 0.03 0.03 87 1030.5
20210116005109 47 150 0.0 0.0 0.00 0.03 0.03 86 1030.5
20210116005019 47 150 0.0 0.0 0.00 0.03 0.03 86 1030.4
20210116004624 47 150 0.0 0.0 0.00 0.03 0.03 86 1030.4